Time,TemperatureF,DewpointF,PressureIn,WindDirection,WindDirectionDegrees,WindSpeedMPH,WindSpeedGustMPH,Humidity,HourlyPrecipIn,Conditions,Clouds,dailyrainin,SoftwareType,DateUTC
2013-03-11 00:00:00,41.5,17.8,29.32,WSW,248,4.5,4.5,38,0.00,,---,0.00,VWS V14.01,2013-03-11 04:00:00,
2013-03-11 00:05:00,41.2,17.5,29.32,WNW,292,2.5,3.6,38,0.00,,---,0.00,VWS V14.01,2013-03-11 04:05:00,
2013-03-11 00:10:00,41.0,17.4,29.32,WSW,248,3.4,3.4,38,0.00,,---,0.00,VWS V14.01,2013-03-11 04:10:00,
2013-03-11 00:15:00,41.0,17.4,29.32,WNW,292,4.0,4.0,38,0.00,,---,0.00,VWS V14.01,2013-03-11 04:15:00,
2013-03-11 00:20:00,41.2,17.5,29.32,West,270,3.6,3.6,38,0.00,,---,0.00,VWS V14.01,2013-03-11 04:20:00,
2013-03-11 00:25:00,41.4,17.7,29.32,WNW,292,3.4,3.4,38,0.00,,---,0.00,VWS V14.01,2013-03-11 04:25:00,
2013-03-11 00:30:00,41.2,17.5,29.32,WSW,248,0.0,2.9,38,0.00,,---,0.00,VWS V14.01,2013-03-11 04:30:00,
2013-03-11 00:35:00,41.2,17.5,29.32,WNW,292,0.0,0.0,38,0.00,,---,0.00,VWS V14.01,2013-03-11 04:35:00,
2013-03-11 00:40:00,41.0,17.4,29.32,NNE,22,1.1,1.1,38,0.00,,---,0.00,VWS V14.01,2013-03-11 04:40:00,
2013-03-11 00:45:00,41.0,17.4,29.32,WSW,248,3.4,3.4,38,0.00,,---,0.00,VWS V14.01,2013-03-11 04:45:00,
2013-03-11 00:50:00,41.9,18.2,29.32,ENE,68,0.0,2.7,38,0.00,,---,0.00,VWS V14.01,2013-03-11 04:50:00,
2013-03-11 00:55:00,41.7,18.0,29.32,SSE,158,1.3,1.3,38,0.00,,---,0.00,VWS V14.01,2013-03-11 04:55:00,
2013-03-11 01:00:00,41.5,17.8,29.32,ESE,112,4.0,4.9,38,0.00,,---,0.00,VWS V14.01,2013-03-11 05:00:00,
2013-03-11 01:05:00,41.7,18.0,29.32,ESE,112,2.9,2.9,38,0.00,,---,0.00,VWS V14.01,2013-03-11 05:05:00,
2013-03-11 01:10:00,41.2,17.5,29.32,East,90,0.0,0.0,38,0.00,,---,0.00,VWS V14.01,2013-03-11 05:10:00,
2013-03-11 01:15:00,40.8,17.8,29.32,SSE,158,0.0,2.0,39,0.00,,---,0.00,VWS V14.01,2013-03-11 05:15:00,
2013-03-11 01:20:00,41.2,17.5,29.29,ENE,68,1.6,1.6,38,0.00,,---,0.00,VWS V14.01,2013-03-11 05:20:00,
2013-03-11 01:25:00,40.6,17.6,29.29,ESE,112,0.0,0.0,39,0.00,,---,0.00,VWS V14.01,2013-03-11 05:25:00,
2013-03-11 01:30:00,41.0,18.0,29.29,WSW,248,0.0,1.6,39,0.00,,---,0.00,VWS V14.01,2013-03-11 05:30:00,
2013-03-11 01:35:00,41.0,17.4,29.29,SSW,202,0.0,2.7,38,0.00,,---,0.00,VWS V14.01,2013-03-11 05:35:00,
2013-03-11 01:40:00,40.8,17.8,29.29,SW,225,0.0,0.9,39,0.00,,---,0.00,VWS V14.01,2013-03-11 05:40:00,
2013-03-11 01:45:00,40.8,17.8,29.29,ESE,112,0.0,1.1,39,0.00,,---,0.00,VWS V14.01,2013-03-11 05:45:00,
2013-03-11 01:50:00,40.5,17.5,29.29,SE,135,3.4,3.6,39,0.00,,---,0.00,VWS V14.01,2013-03-11 05:50:00,
2013-03-11 01:55:00,41.0,18.0,29.29,ENE,68,3.6,3.6,39,0.00,,---,0.00,VWS V14.01,2013-03-11 05:55:00,
2013-03-11 02:00:00,41.0,18.0,29.29,East,90,2.9,2.9,39,0.00,,---,0.00,VWS V14.01,2013-03-11 06:00:00,
2013-03-11 02:05:00,40.8,17.8,29.29,North,0,1.3,2.7,39,0.00,,---,0.00,VWS V14.01,2013-03-11 06:05:00,
2013-03-11 02:09:00,40.6,17.6,29.29,WNW,292,0.0,2.0,39,0.00,,---,0.00,VWS V14.01,2013-03-11 06:09:00,
2013-03-11 02:14:00,41.2,18.1,29.29,NE,45,2.7,2.7,39,0.00,,---,0.00,VWS V14.01,2013-03-11 06:14:00,
2013-03-11 02:19:00,40.8,17.8,29.29,SSW,202,0.0,0.0,39,0.00,,---,0.00,VWS V14.01,2013-03-11 06:19:00,
2013-03-11 02:24:00,40.6,17.6,29.29,ESE,112,3.1,3.6,39,0.00,,---,0.00,VWS V14.01,2013-03-11 06:24:00,
2013-03-11 02:29:00,40.5,17.5,29.29,East,90,3.4,3.4,39,0.00,,---,0.00,VWS V14.01,2013-03-11 06:29:00,
2013-03-11 02:34:00,40.6,17.6,29.29,WSW,248,1.1,1.3,39,0.00,,---,0.00,VWS V14.01,2013-03-11 06:34:00,
2013-03-11 02:39:00,40.1,17.1,29.29,ESE,112,0.0,2.0,39,0.00,,---,0.00,VWS V14.01,2013-03-11 06:39:00,
2013-03-11 02:44:00,40.1,17.1,29.29,ESE,112,0.9,0.9,39,0.00,,---,0.00,VWS V14.01,2013-03-11 06:44:00,
2013-03-11 02:49:00,39.9,17.0,29.29,SE,135,3.6,3.6,39,0.00,,---,0.00,VWS V14.01,2013-03-11 06:49:00,
2013-03-11 02:54:00,40.5,17.5,29.29,ENE,68,1.1,2.9,39,0.00,,---,0.00,VWS V14.01,2013-03-11 06:54:00,
2013-03-11 02:59:00,40.1,17.1,29.29,SE,135,1.6,1.6,39,0.00,,---,0.00,VWS V14.01,2013-03-11 06:59:00,
2013-03-11 03:04:00,40.1,17.7,29.26,NW,315,2.0,2.5,40,0.00,,---,0.00,VWS V14.01,2013-03-11 07:04:00,
2013-03-11 03:09:00,40.3,17.9,29.26,SSE,158,2.5,2.5,40,0.00,,---,0.00,VWS V14.01,2013-03-11 07:09:00,
2013-03-11 03:14:00,40.5,18.1,29.26,SE,135,2.0,2.0,40,0.00,,---,0.00,VWS V14.01,2013-03-11 07:14:00,
2013-03-11 03:19:00,40.3,17.9,29.26,NNE,22,0.0,0.0,40,0.00,,---,0.00,VWS V14.01,2013-03-11 07:19:00,
2013-03-11 03:24:00,40.1,17.7,29.26,East,90,2.2,2.2,40,0.00,,---,0.00,VWS V14.01,2013-03-11 07:24:00,
2013-03-11 03:29:00,39.9,17.6,29.26,ESE,112,3.6,3.6,40,0.00,,---,0.00,VWS V14.01,2013-03-11 07:29:00,
2013-03-11 03:34:00,40.3,17.9,29.26,NNW,338,2.0,2.0,40,0.00,,---,0.00,VWS V14.01,2013-03-11 07:34:00,
2013-03-11 03:39:00,40.5,18.1,29.26,SSE,158,3.1,3.1,40,0.00,,---,0.00,VWS V14.01,2013-03-11 07:39:00,
2013-03-11 03:44:00,40.3,17.9,29.26,East,90,2.9,2.9,40,0.00,,---,0.00,VWS V14.01,2013-03-11 07:44:00,
2013-03-11 03:49:00,39.7,17.4,29.23,SE,135,2.7,2.7,40,0.00,,---,0.00,VWS V14.01,2013-03-11 07:49:00,
2013-03-11 03:54:00,39.6,17.2,29.23,SSW,202,3.1,3.1,40,0.00,,---,0.00,VWS V14.01,2013-03-11 07:54:00,
2013-03-11 03:59:00,39.7,17.4,29.23,South,180,2.0,2.0,40,0.00,,---,0.00,VWS V14.01,2013-03-11 07:59:00,
2013-03-11 04:04:00,39.7,17.4,29.23,ENE,68,2.7,2.7,40,0.00,,---,0.00,VWS V14.01,2013-03-11 08:04:00,
2013-03-11 04:09:00,39.7,17.4,29.23,ESE,112,2.9,3.8,40,0.00,,---,0.00,VWS V14.01,2013-03-11 08:09:00,
2013-03-11 04:14:00,39.4,17.7,29.23,SSE,158,0.0,0.0,41,0.00,,---,0.00,VWS V14.01,2013-03-11 08:14:00,
2013-03-11 04:19:00,39.6,17.8,29.23,ESE,112,1.6,1.6,41,0.00,,---,0.00,VWS V14.01,2013-03-11 08:19:00,
2013-03-11 04:24:00,39.7,18.0,29.23,SE,135,4.7,4.7,41,0.00,,---,0.00,VWS V14.01,2013-03-11 08:24:00,
2013-03-11 04:29:00,39.7,17.4,29.23,SE,135,0.0,1.1,40,0.00,,---,0.00,VWS V14.01,2013-03-11 08:29:00,
2013-03-11 04:34:00,39.6,17.2,29.23,SSE,158,3.1,3.1,40,0.00,,---,0.00,VWS V14.01,2013-03-11 08:34:00,
2013-03-11 04:39:00,39.4,17.1,29.23,SSW,202,0.0,0.0,40,0.00,,---,0.00,VWS V14.01,2013-03-11 08:39:00,
2013-03-11 04:44:00,39.6,17.2,29.23,ESE,112,3.6,3.6,40,0.00,,---,0.00,VWS V14.01,2013-03-11 08:44:00,
2013-03-11 04:49:00,39.2,17.5,29.23,NNE,22,2.5,2.5,41,0.00,,---,0.00,VWS V14.01,2013-03-11 08:49:00,
2013-03-11 04:54:00,38.5,17.9,29.23,SSW,202,2.7,2.7,43,0.00,,---,0.00,VWS V14.01,2013-03-11 08:54:00,
2013-03-11 04:59:00,38.7,17.6,29.23,ENE,68,2.9,2.9,42,0.00,,---,0.00,VWS V14.01,2013-03-11 08:59:00,
2013-03-11 05:04:00,39.0,17.9,29.23,East,90,0.0,0.0,42,0.00,,---,0.00,VWS V14.01,2013-03-11 09:04:00,
2013-03-11 05:09:00,38.8,17.7,29.23,SSE,158,0.0,2.5,42,0.00,,---,0.00,VWS V14.01,2013-03-11 09:09:00,
2013-03-11 05:14:00,38.7,17.6,29.23,NNW,338,0.0,0.0,42,0.00,,---,0.00,VWS V14.01,2013-03-11 09:14:00,
2013-03-11 05:19:00,37.6,17.7,29.23,NNW,338,0.0,0.0,44,0.00,,---,0.00,VWS V14.01,2013-03-11 09:19:00,
2013-03-11 05:24:00,37.4,17.5,29.23,NNW,338,0.0,0.0,44,0.00,,---,0.00,VWS V14.01,2013-03-11 09:24:00,
2013-03-11 05:29:00,37.0,18.2,29.23,NNW,338,0.0,0.0,46,0.00,,---,0.00,VWS V14.01,2013-03-11 09:29:00,
2013-03-11 05:34:00,36.9,17.5,29.26,ENE,68,0.0,0.0,45,0.00,,---,0.00,VWS V14.01,2013-03-11 09:34:00,
2013-03-11 05:39:00,37.2,17.9,29.26,ENE,68,2.0,2.0,45,0.00,,---,0.00,VWS V14.01,2013-03-11 09:39:00,
2013-03-11 05:44:00,37.6,18.2,29.26,NE,45,2.2,2.2,45,0.00,,---,0.00,VWS V14.01,2013-03-11 09:44:00,
2013-03-11 05:49:00,37.8,17.8,29.26,NNE,22,0.0,0.0,44,0.00,,---,0.00,VWS V14.01,2013-03-11 09:49:00,
2013-03-11 05:54:00,37.6,18.7,29.26,NNW,338,0.9,0.9,46,0.00,,---,0.00,VWS V14.01,2013-03-11 09:54:00,
2013-03-11 05:59:00,37.2,18.9,29.26,East,90,2.2,2.2,47,0.00,,---,0.00,VWS V14.01,2013-03-11 09:59:00,
2013-03-11 06:04:00,37.4,18.5,29.26,ENE,68,0.0,0.0,46,0.00,,---,0.00,VWS V14.01,2013-03-11 10:04:00,
2013-03-11 06:09:00,37.6,19.7,29.26,ENE,68,2.2,2.2,48,0.00,,---,0.00,VWS V14.01,2013-03-11 10:09:00,
2013-03-11 06:14:00,37.0,18.7,29.26,East,90,2.5,2.5,47,0.00,,---,0.00,VWS V14.01,2013-03-11 10:14:00,
2013-03-11 06:19:00,37.2,18.9,29.26,NE,45,2.0,2.0,47,0.00,,---,0.00,VWS V14.01,2013-03-11 10:19:00,
2013-03-11 06:24:00,37.0,18.7,29.26,SE,135,2.0,2.0,47,0.00,,---,0.00,VWS V14.01,2013-03-11 10:24:00,
2013-03-11 06:29:00,37.0,18.2,29.26,ESE,112,1.3,1.3,46,0.00,,---,0.00,VWS V14.01,2013-03-11 10:29:00,
2013-03-11 06:34:00,37.6,18.2,29.29,East,90,2.7,2.9,45,0.00,,---,0.00,VWS V14.01,2013-03-11 10:34:00,
2013-03-11 06:39:00,37.4,19.5,29.29,ENE,68,3.4,3.4,48,0.00,,---,0.00,VWS V14.01,2013-03-11 10:39:00,
2013-03-11 06:44:00,37.4,18.5,29.29,ENE,68,1.3,1.3,46,0.00,,---,0.00,VWS V14.01,2013-03-11 10:44:00,
2013-03-11 06:49:00,37.4,19.0,29.26,NE,45,1.1,1.1,47,0.00,,---,0.00,VWS V14.01,2013-03-11 10:49:00,
2013-03-11 06:54:00,38.1,19.2,29.26,ESE,112,2.0,3.4,46,0.00,,---,0.00,VWS V14.01,2013-03-11 10:54:00,
2013-03-11 06:59:00,38.1,18.7,29.26,ENE,68,4.3,4.3,45,0.00,,---,0.00,VWS V14.01,2013-03-11 10:59:00,
2013-03-11 07:04:00,37.9,18.5,29.26,ENE,68,1.3,2.0,45,0.00,,---,0.00,VWS V14.01,2013-03-11 11:04:00,
2013-03-11 07:09:00,37.4,19.0,29.26,ENE,68,2.7,3.4,47,0.00,,---,0.00,VWS V14.01,2013-03-11 11:09:00,
2013-03-11 07:14:00,37.6,18.7,29.26,ENE,68,4.0,4.0,46,0.00,,---,0.00,VWS V14.01,2013-03-11 11:14:00,
2013-03-11 07:19:00,37.4,19.0,29.26,ENE,68,1.6,2.0,47,0.00,,---,0.00,VWS V14.01,2013-03-11 11:19:00,
2013-03-11 07:24:00,37.4,19.0,29.26,ESE,112,2.7,2.7,47,0.00,,---,0.00,VWS V14.01,2013-03-11 11:24:00,
2013-03-11 07:29:00,37.6,18.7,29.26,East,90,2.0,2.0,46,0.00,,---,0.00,VWS V14.01,2013-03-11 11:29:00,
2013-03-11 07:34:00,37.9,19.0,29.26,SE,135,2.5,2.5,46,0.00,,---,0.00,VWS V14.01,2013-03-11 11:34:00,
2013-03-11 07:39:00,37.9,18.5,29.26,ESE,112,2.5,2.5,45,0.00,,---,0.00,VWS V14.01,2013-03-11 11:39:00,
2013-03-11 07:44:00,38.3,18.8,29.26,East,90,2.5,3.4,45,0.00,,---,0.00,VWS V14.01,2013-03-11 11:44:00,
2013-03-11 07:49:00,38.3,18.8,29.26,ENE,68,2.9,2.9,45,0.00,,---,0.00,VWS V14.01,2013-03-11 11:49:00,
2013-03-11 07:54:00,38.5,19.0,29.26,ENE,68,2.0,2.2,45,0.00,,---,0.00,VWS V14.01,2013-03-11 11:54:00,
2013-03-11 07:59:00,38.1,18.7,29.26,ESE,112,2.5,2.9,45,0.00,,---,0.00,VWS V14.01,2013-03-11 11:59:00,
2013-03-11 08:04:00,38.1,18.7,29.26,East,90,4.0,4.0,45,0.00,,---,0.00,VWS V14.01,2013-03-11 12:04:00,
2013-03-11 08:09:00,38.5,19.0,29.26,ESE,112,1.3,2.5,45,0.00,,---,0.00,VWS V14.01,2013-03-11 12:09:00,
2013-03-11 08:14:00,38.8,19.3,29.26,East,90,2.5,2.5,45,0.00,,---,0.00,VWS V14.01,2013-03-11 12:14:00,
2013-03-11 08:19:00,39.0,19.5,29.26,ESE,112,4.9,4.9,45,0.00,,---,0.00,VWS V14.01,2013-03-11 12:19:00,
2013-03-11 08:24:00,39.2,19.1,29.26,ESE,112,3.1,3.1,44,0.00,,---,0.00,VWS V14.01,2013-03-11 12:24:00,
2013-03-11 08:29:00,39.6,19.5,29.26,ESE,112,3.6,3.6,44,0.00,,---,0.00,VWS V14.01,2013-03-11 12:29:00,
2013-03-11 08:34:00,39.9,19.8,29.26,East,90,2.9,2.9,44,0.00,,---,0.00,VWS V14.01,2013-03-11 12:34:00,
2013-03-11 08:39:00,39.9,19.8,29.26,SE,135,5.8,5.8,44,0.00,,---,0.00,VWS V14.01,2013-03-11 12:39:00,
2013-03-11 08:44:00,39.7,19.6,29.26,ESE,112,3.4,3.4,44,0.00,,---,0.00,VWS V14.01,2013-03-11 12:44:00,
2013-03-11 08:49:00,39.9,19.8,29.26,SSE,158,4.9,4.9,44,0.00,,---,0.00,VWS V14.01,2013-03-11 12:49:00,
2013-03-11 08:54:00,40.5,20.3,29.26,ESE,112,4.0,4.0,44,0.00,,---,0.00,VWS V14.01,2013-03-11 12:54:00,
2013-03-11 08:59:00,41.9,21.0,29.26,ESE,112,2.7,2.7,43,0.00,,---,0.00,VWS V14.01,2013-03-11 12:59:00,
2013-03-11 09:04:00,42.4,21.5,29.26,WSW,248,3.4,3.6,43,0.00,,---,0.00,VWS V14.01,2013-03-11 13:04:00,
2013-03-11 09:09:00,44.6,22.4,29.26,SSE,158,2.7,2.9,41,0.00,,---,0.00,VWS V14.01,2013-03-11 13:09:00,
2013-03-11 09:14:00,45.7,22.8,29.26,SSW,202,0.0,2.0,40,0.00,,---,0.00,VWS V14.01,2013-03-11 13:14:00,
2013-03-11 09:19:00,46.6,23.6,29.26,SW,225,2.5,2.9,40,0.00,,---,0.00,VWS V14.01,2013-03-11 13:19:00,
2013-03-11 09:24:00,46.6,23.0,29.26,SSE,158,0.0,0.0,39,0.00,,---,0.00,VWS V14.01,2013-03-11 13:24:00,
2013-03-11 09:29:00,47.3,23.6,29.26,ESE,112,2.7,2.9,39,0.00,,---,0.00,VWS V14.01,2013-03-11 13:29:00,
2013-03-11 09:34:00,47.7,23.9,29.26,West,270,0.0,1.6,39,0.00,,---,0.00,VWS V14.01,2013-03-11 13:34:00,
2013-03-11 09:39:00,48.2,23.8,29.26,South,180,0.0,0.9,38,0.00,,---,0.00,VWS V14.01,2013-03-11 13:39:00,
2013-03-11 09:44:00,48.0,23.6,29.26,SW,225,1.3,2.9,38,0.00,,---,0.00,VWS V14.01,2013-03-11 13:44:00,
2013-03-11 09:49:00,48.9,24.5,29.26,SW,225,2.5,2.5,38,0.00,,---,0.00,VWS V14.01,2013-03-11 13:49:00,
2013-03-11 09:54:00,48.7,23.6,29.26,WSW,248,0.0,0.0,37,0.00,,---,0.00,VWS V14.01,2013-03-11 13:54:00,
2013-03-11 09:59:00,48.2,23.2,29.26,SW,225,1.6,1.6,37,0.00,,---,0.00,VWS V14.01,2013-03-11 13:59:00,
2013-03-11 10:04:00,47.3,23.0,29.26,WSW,248,0.9,3.4,38,0.00,,---,0.00,VWS V14.01,2013-03-11 14:04:00,
2013-03-11 10:09:00,47.1,22.8,29.26,SSW,202,0.0,0.0,38,0.00,,---,0.00,VWS V14.01,2013-03-11 14:09:00,
2013-03-11 10:14:00,46.6,22.4,29.26,SSW,202,1.3,1.3,38,0.00,,---,0.00,VWS V14.01,2013-03-11 14:14:00,
2013-03-11 10:19:00,46.4,22.2,29.26,South,180,0.9,2.7,38,0.00,,---,0.00,VWS V14.01,2013-03-11 14:19:00,
2013-03-11 10:24:00,46.4,22.2,29.26,WSW,248,2.9,2.9,38,0.00,,---,0.00,VWS V14.01,2013-03-11 14:24:00,
2013-03-11 10:29:00,46.4,22.2,29.26,West,270,2.0,2.0,38,0.00,,---,0.00,VWS V14.01,2013-03-11 14:29:00,
2013-03-11 10:34:00,46.4,22.2,29.26,WSW,248,4.3,4.3,38,0.00,,---,0.00,VWS V14.01,2013-03-11 14:34:00,
2013-03-11 10:39:00,46.4,22.2,29.26,SSW,202,2.7,2.7,38,0.00,,---,0.00,VWS V14.01,2013-03-11 14:39:00,
2013-03-11 10:44:00,46.2,22.0,29.26,WNW,292,4.9,5.6,38,0.00,,---,0.00,VWS V14.01,2013-03-11 14:44:00,
2013-03-11 10:49:00,46.4,22.2,29.23,West,270,2.2,2.2,38,0.00,,---,0.00,VWS V14.01,2013-03-11 14:49:00,
2013-03-11 10:54:00,46.2,22.0,29.23,SSW,202,1.3,5.6,38,0.00,,---,0.00,VWS V14.01,2013-03-11 14:54:00,
2013-03-11 10:59:00,46.2,22.0,29.23,East,90,0.0,5.4,38,0.00,,---,0.00,VWS V14.01,2013-03-11 14:59:00,
2013-03-11 11:04:00,46.4,21.6,29.23,WSW,248,3.6,3.6,37,0.00,,---,0.00,VWS V14.01,2013-03-11 15:04:00,
2013-03-11 11:09:00,46.6,21.7,29.23,NNW,338,5.8,5.8,37,0.00,,---,0.00,VWS V14.01,2013-03-11 15:09:00,
2013-03-11 11:14:00,46.8,21.9,29.23,WSW,248,4.3,4.3,37,0.00,,---,0.00,VWS V14.01,2013-03-11 15:14:00,
2013-03-11 11:19:00,47.1,22.2,29.23,SW,225,3.1,3.1,37,0.00,,---,0.00,VWS V14.01,2013-03-11 15:19:00,
2013-03-11 11:24:00,46.9,22.0,29.23,NNW,338,2.7,2.7,37,0.00,,---,0.00,VWS V14.01,2013-03-11 15:24:00,
2013-03-11 11:29:00,46.8,21.9,29.23,SW,225,0.0,0.0,37,0.00,,---,0.00,VWS V14.01,2013-03-11 15:29:00,
2013-03-11 11:34:00,46.8,21.9,29.23,SSE,158,3.4,3.4,37,0.00,,---,0.00,VWS V14.01,2013-03-11 15:34:00,
2013-03-11 11:39:00,46.2,22.0,29.23,WNW,292,1.6,3.1,38,0.00,,---,0.00,VWS V14.01,2013-03-11 15:39:00,
2013-03-11 11:44:00,46.2,21.4,29.23,WNW,292,4.3,4.3,37,0.00,,---,0.00,VWS V14.01,2013-03-11 15:44:00,
2013-03-11 11:49:00,45.9,21.7,29.23,ESE,112,5.8,5.8,38,0.00,,---,0.00,VWS V14.01,2013-03-11 15:49:00,
2013-03-11 11:54:00,45.9,21.7,29.23,SSE,158,2.7,5.4,38,0.00,,---,0.00,VWS V14.01,2013-03-11 15:54:00,
2013-03-11 11:59:00,45.9,21.1,29.23,ESE,112,4.7,4.7,37,0.00,,---,0.00,VWS V14.01,2013-03-11 15:59:00,
2013-03-11 12:04:00,46.0,21.2,29.23,SSE,158,2.7,6.0,37,0.00,,---,0.00,VWS V14.01,2013-03-11 16:04:00,
2013-03-11 12:09:00,46.6,21.7,29.23,NNE,22,1.3,1.6,37,0.00,,---,0.00,VWS V14.01,2013-03-11 16:09:00,
2013-03-11 12:14:00,46.9,22.0,29.23,East,90,3.8,3.8,37,0.00,,---,0.00,VWS V14.01,2013-03-11 16:14:00,
2013-03-11 12:19:00,46.9,22.0,29.23,SE,135,2.2,2.2,37,0.00,,---,0.00,VWS V14.01,2013-03-11 16:19:00,
2013-03-11 12:24:00,46.9,22.0,29.23,NNE,22,2.7,2.7,37,0.00,,---,0.00,VWS V14.01,2013-03-11 16:24:00,
2013-03-11 12:29:00,47.1,22.2,29.23,ESE,112,1.3,2.9,37,0.00,,---,0.00,VWS V14.01,2013-03-11 16:29:00,
2013-03-11 12:34:00,47.1,22.2,29.23,ESE,112,3.1,6.3,37,0.00,,---,0.00,VWS V14.01,2013-03-11 16:34:00,
2013-03-11 12:39:00,47.1,22.2,29.23,ESE,112,3.1,3.1,37,0.00,,---,0.00,VWS V14.01,2013-03-11 16:39:00,
2013-03-11 12:44:00,46.9,22.0,29.23,SSW,202,0.0,2.5,37,0.00,,---,0.00,VWS V14.01,2013-03-11 16:44:00,
2013-03-11 12:49:00,46.9,22.0,29.23,SSE,158,2.5,6.0,37,0.00,,---,0.00,VWS V14.01,2013-03-11 16:49:00,
2013-03-11 12:54:00,46.9,21.4,29.23,SSE,158,2.7,3.6,36,0.00,,---,0.00,VWS V14.01,2013-03-11 16:54:00,
2013-03-11 12:59:00,46.8,21.2,29.23,West,270,5.4,5.4,36,0.00,,---,0.00,VWS V14.01,2013-03-11 16:59:00,
2013-03-11 13:04:00,46.9,21.4,29.23,NNW,338,2.5,2.5,36,0.00,,---,0.00,VWS V14.01,2013-03-11 17:04:00,
2013-03-11 13:09:00,47.1,20.9,29.23,ESE,112,5.4,5.4,35,0.00,,---,0.00,VWS V14.01,2013-03-11 17:09:00,
2013-03-11 13:14:00,47.1,20.9,29.23,SW,225,2.7,2.7,35,0.00,,---,0.00,VWS V14.01,2013-03-11 17:14:00,
2013-03-11 13:19:00,47.3,21.7,29.23,WNW,292,2.9,2.9,36,0.00,,---,0.00,VWS V14.01,2013-03-11 17:19:00,
2013-03-11 13:24:00,48.0,22.4,29.23,WSW,248,0.0,0.0,36,0.00,,---,0.00,VWS V14.01,2013-03-11 17:24:00,
2013-03-11 13:29:00,49.1,22.6,29.23,West,270,2.5,2.5,35,0.00,,---,0.00,VWS V14.01,2013-03-11 17:29:00,
2013-03-11 13:34:00,49.1,22.0,29.23,SSW,202,1.3,4.0,34,0.00,,---,0.00,VWS V14.01,2013-03-11 17:34:00,
2013-03-11 13:39:00,48.9,21.8,29.23,ESE,112,3.1,3.1,34,0.00,,---,0.00,VWS V14.01,2013-03-11 17:39:00,
2013-03-11 13:44:00,48.7,20.9,29.23,NW,315,5.4,5.4,33,0.00,,---,0.00,VWS V14.01,2013-03-11 17:44:00,
2013-03-11 13:49:00,48.7,21.6,29.23,NW,315,4.0,4.0,34,0.00,,---,0.00,VWS V14.01,2013-03-11 17:49:00,
2013-03-11 13:54:00,48.4,21.3,29.23,SSE,158,2.7,3.6,34,0.00,,---,0.00,VWS V14.01,2013-03-11 17:54:00,
2013-03-11 13:59:00,48.2,21.2,29.23,WSW,248,5.4,5.4,34,0.00,,---,0.00,VWS V14.01,2013-03-11 17:59:00,
2013-03-11 14:04:00,48.0,21.0,29.23,West,270,6.5,6.5,34,0.00,,---,0.00,VWS V14.01,2013-03-11 18:04:00,
2013-03-11 14:09:00,48.0,20.3,29.23,WSW,248,4.9,7.2,33,0.00,,---,0.00,VWS V14.01,2013-03-11 18:09:00,
2013-03-11 14:14:00,48.0,21.0,29.23,SSE,158,2.0,4.0,34,0.00,,---,0.00,VWS V14.01,2013-03-11 18:14:00,
2013-03-11 14:19:00,48.2,21.2,29.23,South,180,3.4,3.4,34,0.00,,---,0.00,VWS V14.01,2013-03-11 18:19:00,
2013-03-11 14:24:00,48.2,20.5,29.23,WNW,292,3.8,4.7,33,0.00,,---,0.00,VWS V14.01,2013-03-11 18:24:00,
2013-03-11 14:29:00,48.0,20.3,29.23,South,180,3.1,3.1,33,0.00,,---,0.00,VWS V14.01,2013-03-11 18:29:00,
2013-03-11 14:34:00,48.0,21.0,29.23,WSW,248,2.0,2.7,34,0.00,,---,0.00,VWS V14.01,2013-03-11 18:34:00,
2013-03-11 14:39:00,48.0,21.0,29.23,East,90,2.5,2.5,34,0.00,,---,0.00,VWS V14.01,2013-03-11 18:39:00,
2013-03-11 14:44:00,48.0,21.0,29.23,WSW,248,4.0,4.0,34,0.00,,---,0.00,VWS V14.01,2013-03-11 18:44:00,
2013-03-11 20:35:00,42.1,20.1,29.14,SSE,158,3.6,3.6,41,0.00,,---,0.00,VWS V14.01,2013-03-12 00:35:00,
2013-03-11 20:36:00,42.1,20.1,29.14,SSW,202,0.9,3.6,41,0.00,,---,0.00,VWS V14.01,2013-03-12 00:36:00,
2013-03-11 20:37:00,42.1,20.1,29.14,SSE,158,3.8,3.8,41,0.00,,---,0.00,VWS V14.01,2013-03-12 00:37:00,
2013-03-11 20:38:00,42.1,20.1,29.14,WNW,292,2.7,5.6,41,0.00,,---,0.00,VWS V14.01,2013-03-12 00:38:00,
2013-03-11 20:39:00,42.3,20.3,29.14,WNW,292,1.6,2.7,41,0.00,,---,0.00,VWS V14.01,2013-03-12 00:39:00,
2013-03-11 20:40:00,42.3,20.3,29.14,South,180,1.1,1.6,41,0.00,,---,0.00,VWS V14.01,2013-03-12 00:40:00,
2013-03-11 20:41:00,41.9,19.9,29.14,ENE,68,0.0,1.1,41,0.00,,---,0.00,VWS V14.01,2013-03-12 00:41:00,
2013-03-11 20:42:00,41.9,19.9,29.14,ESE,112,2.7,2.7,41,0.00,,---,0.00,VWS V14.01,2013-03-12 00:42:00,
2013-03-11 20:43:00,42.1,20.1,29.14,ESE,112,2.0,2.7,41,0.00,,---,0.00,VWS V14.01,2013-03-12 00:43:00,
2013-03-11 20:44:00,42.1,20.1,29.14,West,270,1.6,2.0,41,0.00,,---,0.00,VWS V14.01,2013-03-12 00:44:00,
2013-03-11 20:45:00,42.1,20.1,29.14,WNW,292,4.0,4.0,41,0.00,,---,0.00,VWS V14.01,2013-03-12 00:45:00,
2013-03-11 20:46:00,42.1,20.1,29.14,WNW,292,4.0,4.0,41,0.00,,---,0.00,VWS V14.01,2013-03-12 00:46:00,
2013-03-11 20:47:00,42.1,20.1,29.17,WSW,248,4.3,4.3,41,0.00,,---,0.00,VWS V14.01,2013-03-12 00:47:00,
2013-03-11 20:48:00,41.9,19.9,29.17,South,180,2.9,4.3,41,0.00,,---,0.00,VWS V14.01,2013-03-12 00:48:00,
2013-03-11 20:49:00,41.9,19.9,29.17,WSW,248,2.2,2.9,41,0.00,,---,0.00,VWS V14.01,2013-03-12 00:49:00,
2013-03-11 20:50:00,41.9,19.9,29.17,WSW,248,2.9,2.9,41,0.00,,---,0.00,VWS V14.01,2013-03-12 00:50:00,
2013-03-11 20:51:00,41.9,19.9,29.17,WSW,248,2.9,2.9,41,0.00,,---,0.00,VWS V14.01,2013-03-12 00:51:00,
2013-03-11 20:52:00,41.7,19.8,29.17,NW,315,2.5,3.6,41,0.00,,---,0.00,VWS V14.01,2013-03-12 00:52:00,
2013-03-11 20:53:00,41.7,19.8,29.17,NW,315,2.5,2.5,41,0.00,,---,0.00,VWS V14.01,2013-03-12 00:53:00,
2013-03-11 20:54:00,41.9,19.9,29.17,WSW,248,2.2,2.5,41,0.00,,---,0.00,VWS V14.01,2013-03-12 00:54:00,
2013-03-11 20:55:00,41.7,19.8,29.17,WNW,292,0.0,2.2,41,0.00,,---,0.00,VWS V14.01,2013-03-12 00:55:00,
2013-03-11 20:56:00,41.7,19.8,29.17,WSW,248,2.7,2.7,41,0.00,,---,0.00,VWS V14.01,2013-03-12 00:56:00,
2013-03-11 20:57:00,42.1,20.7,29.17,West,270,3.4,3.4,42,0.00,,---,0.00,VWS V14.01,2013-03-12 00:57:00,
2013-03-11 20:58:00,42.1,20.7,29.17,WSW,248,1.6,3.4,42,0.00,,---,0.00,VWS V14.01,2013-03-12 00:58:00,
2013-03-11 20:59:00,42.1,20.7,29.17,WSW,248,0.0,1.6,42,0.00,,---,0.00,VWS V14.01,2013-03-12 00:59:00,
2013-03-11 21:00:00,41.7,20.3,29.17,ESE,112,2.7,2.7,42,0.00,,---,0.00,VWS V14.01,2013-03-12 01:00:00,
2013-03-11 21:01:00,41.7,20.3,29.17,WNW,292,5.6,5.6,42,0.00,,---,0.00,VWS V14.01,2013-03-12 01:01:00,
2013-03-11 21:02:00,41.9,20.5,29.14,SSW,202,2.5,5.6,42,0.00,,---,0.00,VWS V14.01,2013-03-12 01:02:00,
2013-03-11 21:03:00,41.9,20.5,29.14,SSW,202,0.0,2.5,42,0.00,,---,0.00,VWS V14.01,2013-03-12 01:03:00,
2013-03-11 21:04:00,41.9,20.5,29.14,SSW,202,0.0,0.0,42,0.00,,---,0.00,VWS V14.01,2013-03-12 01:04:00,
2013-03-11 21:05:00,41.9,20.5,29.14,WSW,248,2.0,2.0,42,0.00,,---,0.00,VWS V14.01,2013-03-12 01:05:00,
2013-03-11 21:06:00,41.9,20.5,29.14,WSW,248,5.6,5.6,42,0.00,,---,0.00,VWS V14.01,2013-03-12 01:06:00,
2013-03-11 21:07:00,42.1,20.7,29.14,WSW,248,5.6,5.6,42,0.00,,---,0.00,VWS V14.01,2013-03-12 01:07:00,
2013-03-11 21:08:00,42.1,20.7,29.14,WNW,292,2.2,5.6,42,0.00,,---,0.00,VWS V14.01,2013-03-12 01:08:00,
2013-03-11 21:09:00,41.7,20.3,29.14,WNW,292,2.2,2.2,42,0.00,,---,0.00,VWS V14.01,2013-03-12 01:09:00,
2013-03-11 21:10:00,41.7,20.3,29.14,WSW,248,3.4,3.4,42,0.00,,---,0.00,VWS V14.01,2013-03-12 01:10:00,
2013-03-11 21:11:00,41.7,20.3,29.14,WNW,292,2.9,3.4,42,0.00,,---,0.00,VWS V14.01,2013-03-12 01:11:00,
2013-03-11 21:12:00,41.7,20.3,29.14,WNW,292,3.6,3.6,42,0.00,,---,0.00,VWS V14.01,2013-03-12 01:12:00,
2013-03-11 21:13:00,41.9,20.5,29.14,WNW,292,2.5,3.6,42,0.00,,---,0.00,VWS V14.01,2013-03-12 01:13:00,
2013-03-11 21:14:00,41.9,20.5,29.14,WNW,292,2.7,2.7,42,0.00,,---,0.00,VWS V14.01,2013-03-12 01:14:00,
2013-03-11 21:15:00,42.1,20.7,29.14,NNW,338,3.1,3.1,42,0.00,,---,0.00,VWS V14.01,2013-03-12 01:15:00,
2013-03-11 21:16:00,42.3,20.8,29.14,NNW,338,2.0,3.1,42,0.00,,---,0.00,VWS V14.01,2013-03-12 01:16:00,
2013-03-11 21:17:00,42.3,20.8,29.14,WNW,292,2.9,2.9,42,0.00,,---,0.00,VWS V14.01,2013-03-12 01:17:00,
2013-03-11 21:18:00,42.4,21.0,29.14,WSW,248,4.3,4.3,42,0.00,,---,0.00,VWS V14.01,2013-03-12 01:18:00,
2013-03-11 21:19:00,42.4,21.0,29.14,WNW,292,4.0,4.3,42,0.00,,---,0.00,VWS V14.01,2013-03-12 01:19:00,
2013-03-11 21:20:00,42.4,21.0,29.14,WNW,292,3.6,4.0,42,0.00,,---,0.00,VWS V14.01,2013-03-12 01:20:00,
2013-03-11 21:21:00,42.3,20.8,29.14,West,270,4.3,4.3,42,0.00,,---,0.00,VWS V14.01,2013-03-12 01:21:00,
2013-03-11 21:22:00,42.3,20.8,29.14,WNW,292,3.4,4.3,42,0.00,,---,0.00,VWS V14.01,2013-03-12 01:22:00,
2013-03-11 21:23:00,42.3,20.8,29.14,WNW,292,3.1,3.4,42,0.00,,---,0.00,VWS V14.01,2013-03-12 01:23:00,
2013-03-11 21:24:00,42.1,20.7,29.14,WNW,292,3.4,3.4,42,0.00,,---,0.00,VWS V14.01,2013-03-12 01:24:00,
2013-03-11 21:25:00,41.9,20.5,29.14,SSW,202,2.5,3.4,42,0.00,,---,0.00,VWS V14.01,2013-03-12 01:25:00,
2013-03-11 21:26:00,41.9,20.5,29.14,SSW,202,2.5,2.5,42,0.00,,---,0.00,VWS V14.01,2013-03-12 01:26:00,
2013-03-11 21:27:00,42.1,20.7,29.14,WNW,292,3.4,4.5,42,0.00,,---,0.00,VWS V14.01,2013-03-12 01:27:00,
2013-03-11 21:28:00,42.1,20.7,29.14,WSW,248,2.0,3.4,42,0.00,,---,0.00,VWS V14.01,2013-03-12 01:28:00,
2013-03-11 21:29:00,42.1,20.7,29.14,WNW,292,3.1,3.1,42,0.00,,---,0.00,VWS V14.01,2013-03-12 01:29:00,
2013-03-11 21:30:00,42.1,20.7,29.14,WSW,248,3.1,3.1,42,0.00,,---,0.00,VWS V14.01,2013-03-12 01:30:00,
2013-03-11 21:31:00,42.3,20.8,29.14,NNW,338,2.2,3.1,42,0.00,,---,0.00,VWS V14.01,2013-03-12 01:31:00,
2013-03-11 21:32:00,42.3,21.4,29.14,South,180,3.6,3.6,43,0.00,,---,0.00,VWS V14.01,2013-03-12 01:32:00,
2013-03-11 21:33:00,42.3,21.4,29.14,WNW,292,2.5,3.6,43,0.00,,---,0.00,VWS V14.01,2013-03-12 01:33:00,
2013-03-11 21:34:00,41.7,20.3,29.14,WNW,292,3.6,3.6,42,0.00,,---,0.00,VWS V14.01,2013-03-12 01:34:00,
2013-03-11 21:35:00,41.7,20.3,29.14,South,180,1.1,3.6,42,0.00,,---,0.00,VWS V14.01,2013-03-12 01:35:00,
2013-03-11 21:36:00,41.7,20.3,29.14,WNW,292,2.9,2.9,42,0.00,,---,0.00,VWS V14.01,2013-03-12 01:36:00,
2013-03-11 21:37:00,41.7,20.3,29.14,West,270,3.1,3.1,42,0.00,,---,0.00,VWS V14.01,2013-03-12 01:37:00,
2013-03-11 21:38:00,41.5,20.7,29.14,WNW,292,5.8,5.8,43,0.00,,---,0.00,VWS V14.01,2013-03-12 01:38:00,
2013-03-11 21:39:00,42.1,21.2,29.14,WNW,292,5.8,5.8,43,0.00,,---,0.00,VWS V14.01,2013-03-12 01:39:00,
2013-03-11 21:40:00,42.1,21.2,29.14,WSW,248,4.0,5.8,43,0.00,,---,0.00,VWS V14.01,2013-03-12 01:40:00,
2013-03-11 21:41:00,41.9,21.0,29.14,WNW,292,3.4,4.0,43,0.00,,---,0.00,VWS V14.01,2013-03-12 01:41:00,
2013-03-11 21:42:00,41.9,21.0,29.14,WNW,292,5.4,5.4,43,0.00,,---,0.00,VWS V14.01,2013-03-12 01:42:00,
2013-03-11 21:43:00,41.7,20.9,29.14,WNW,292,5.8,5.8,43,0.00,,---,0.00,VWS V14.01,2013-03-12 01:43:00,
2013-03-11 21:44:00,41.9,21.0,29.14,WSW,248,4.0,5.8,43,0.00,,---,0.00,VWS V14.01,2013-03-12 01:44:00,
2013-03-11 21:45:00,41.9,21.0,29.14,SW,225,0.9,4.0,43,0.00,,---,0.00,VWS V14.01,2013-03-12 01:45:00,
2013-03-11 21:46:00,41.9,21.0,29.14,WSW,248,3.1,3.1,43,0.00,,---,0.00,VWS V14.01,2013-03-12 01:46:00,
2013-03-11 21:47:00,41.7,20.9,29.14,West,270,5.4,5.4,43,0.00,,---,0.00,VWS V14.01,2013-03-12 01:47:00,
2013-03-11 21:48:00,41.5,20.7,29.14,West,270,5.4,5.4,43,0.00,,---,0.00,VWS V14.01,2013-03-12 01:48:00,
2013-03-11 21:49:00,41.5,20.7,29.14,WSW,248,2.9,5.4,43,0.00,,---,0.00,VWS V14.01,2013-03-12 01:49:00,
2013-03-11 21:50:00,41.5,20.7,29.14,WSW,248,2.0,2.9,43,0.00,,---,0.00,VWS V14.01,2013-03-12 01:50:00,
2013-03-11 21:51:00,41.5,20.7,29.14,SSW,202,2.9,2.9,43,0.00,,---,0.00,VWS V14.01,2013-03-12 01:51:00,
2013-03-11 21:52:00,41.2,20.4,29.14,SSW,202,1.6,2.9,43,0.00,,---,0.00,VWS V14.01,2013-03-12 01:52:00,
2013-03-11 21:53:00,41.2,20.4,29.14,South,180,0.0,1.6,43,0.00,,---,0.00,VWS V14.01,2013-03-12 01:53:00,
2013-03-11 21:54:00,41.2,20.4,29.14,SW,225,2.7,2.7,43,0.00,,---,0.00,VWS V14.01,2013-03-12 01:54:00,
2013-03-11 21:55:00,41.4,20.6,29.14,WNW,292,2.5,2.7,43,0.00,,---,0.00,VWS V14.01,2013-03-12 01:55:00,
2013-03-11 21:56:00,41.4,20.6,29.14,WSW,248,2.7,2.7,43,0.00,,---,0.00,VWS V14.01,2013-03-12 01:56:00,
2013-03-11 21:57:00,41.2,20.4,29.14,WSW,248,2.0,2.7,43,0.00,,---,0.00,VWS V14.01,2013-03-12 01:57:00,
2013-03-11 21:58:00,41.5,21.3,29.14,NNE,22,2.0,2.0,44,0.00,,---,0.00,VWS V14.01,2013-03-12 01:58:00,
2013-03-11 21:59:00,41.5,21.3,29.14,NNW,338,0.9,2.0,44,0.00,,---,0.00,VWS V14.01,2013-03-12 01:59:00,
2013-03-11 22:00:00,41.5,20.7,29.14,ESE,112,0.0,0.9,43,0.00,,---,0.00,VWS V14.01,2013-03-12 02:00:00,
2013-03-11 22:01:00,41.5,20.7,29.14,SW,225,0.0,0.0,43,0.00,,---,0.00,VWS V14.01,2013-03-12 02:01:00,
2013-03-11 22:02:00,41.5,20.7,29.14,West,270,0.0,0.0,43,0.00,,---,0.00,VWS V14.01,2013-03-12 02:02:00,
2013-03-11 22:03:00,41.5,20.7,29.14,SSW,202,2.7,2.7,43,0.00,,---,0.00,VWS V14.01,2013-03-12 02:03:00,
2013-03-11 22:04:00,41.5,21.3,29.14,South,180,1.6,2.7,44,0.00,,---,0.00,VWS V14.01,2013-03-12 02:04:00,
2013-03-11 22:05:00,41.5,21.3,29.14,SSW,202,2.5,2.5,44,0.00,,---,0.00,VWS V14.01,2013-03-12 02:05:00,
2013-03-11 22:06:00,41.4,21.1,29.14,South,180,3.4,3.4,44,0.00,,---,0.00,VWS V14.01,2013-03-12 02:06:00,
2013-03-11 22:07:00,41.4,21.1,29.14,South,180,3.4,3.4,44,0.00,,---,0.00,VWS V14.01,2013-03-12 02:07:00,
2013-03-11 22:08:00,41.4,21.1,29.14,NNE,22,1.3,3.4,44,0.00,,---,0.00,VWS V14.01,2013-03-12 02:08:00,
2013-03-11 22:09:00,41.5,21.3,29.14,NNE,22,1.3,1.3,44,0.00,,---,0.00,VWS V14.01,2013-03-12 02:09:00,
2013-03-11 22:10:00,41.5,21.3,29.14,ESE,112,2.9,2.9,44,0.00,,---,0.00,VWS V14.01,2013-03-12 02:10:00,
2013-03-11 22:11:00,41.2,20.9,29.14,East,90,4.7,4.7,44,0.00,,---,0.00,VWS V14.01,2013-03-12 02:11:00,
2013-03-11 22:12:00,41.2,20.9,29.14,South,180,2.2,4.7,44,0.00,,---,0.00,VWS V14.01,2013-03-12 02:12:00,
2013-03-11 22:13:00,41.4,21.1,29.14,SE,135,0.9,2.2,44,0.00,,---,0.00,VWS V14.01,2013-03-12 02:13:00,
2013-03-11 22:14:00,41.4,21.1,29.14,SSE,158,1.6,1.6,44,0.00,,---,0.00,VWS V14.01,2013-03-12 02:14:00,
2013-03-11 22:15:00,41.4,21.1,29.14,South,180,0.0,1.6,44,0.00,,---,0.00,VWS V14.01,2013-03-12 02:15:00,
2013-03-11 22:16:00,41.5,21.3,29.14,WSW,248,0.0,0.0,44,0.00,,---,0.00,VWS V14.01,2013-03-12 02:16:00,
2013-03-11 22:17:00,41.5,21.3,29.14,SSW,202,1.6,1.6,44,0.00,,---,0.00,VWS V14.01,2013-03-12 02:17:00,
2013-03-11 22:18:00,41.4,21.1,29.14,ESE,112,2.0,2.0,44,0.00,,---,0.00,VWS V14.01,2013-03-12 02:18:00,
2013-03-11 22:19:00,41.4,21.1,29.14,SSE,158,2.2,2.2,44,0.00,,---,0.00,VWS V14.01,2013-03-12 02:19:00,
2013-03-11 22:20:00,41.5,21.3,29.14,SSW,202,0.0,2.2,44,0.00,,---,0.00,VWS V14.01,2013-03-12 02:20:00,
2013-03-11 22:21:00,41.5,21.3,29.14,NW,315,0.0,0.0,44,0.00,,---,0.00,VWS V14.01,2013-03-12 02:21:00,
2013-03-11 22:22:00,41.5,21.3,29.14,SE,135,0.0,0.0,44,0.00,,---,0.00,VWS V14.01,2013-03-12 02:22:00,
2013-03-11 22:23:00,41.5,21.3,29.14,SE,135,0.0,0.0,44,0.00,,---,0.00,VWS V14.01,2013-03-12 02:23:00,
2013-03-11 22:24:00,41.4,21.1,29.14,SSE,158,0.0,0.0,44,0.00,,---,0.00,VWS V14.01,2013-03-12 02:24:00,
2013-03-11 22:25:00,41.2,20.9,29.14,ESE,112,2.9,2.9,44,0.00,,---,0.00,VWS V14.01,2013-03-12 02:25:00,
2013-03-11 22:26:00,41.2,20.9,29.14,SE,135,3.6,3.6,44,0.00,,---,0.00,VWS V14.01,2013-03-12 02:26:00,
2013-03-11 22:27:00,41.0,20.8,29.14,SSE,158,0.0,3.6,44,0.00,,---,0.00,VWS V14.01,2013-03-12 02:27:00,
2013-03-11 22:28:00,41.0,20.8,29.14,ESE,112,2.2,2.2,44,0.00,,---,0.00,VWS V14.01,2013-03-12 02:28:00,
2013-03-11 22:37:00,41.0,21.3,29.14,WNW,292,2.9,2.9,45,0.00,,---,0.00,VWS V14.01,2013-03-12 02:37:00,
2013-03-11 22:38:00,41.0,21.3,29.14,WNW,292,2.9,2.9,45,0.00,,---,0.00,VWS V14.01,2013-03-12 02:38:00,
2013-03-11 22:43:00,41.0,21.3,29.14,WNW,292,2.9,2.9,45,0.00,,---,0.00,VWS V14.01,2013-03-12 02:43:00,
2013-03-11 22:48:00,41.0,21.3,29.14,WNW,292,2.9,2.9,45,0.00,,---,0.00,VWS V14.01,2013-03-12 02:48:00,
2013-03-11 22:53:00,41.0,21.3,29.14,WNW,292,2.9,2.9,45,0.00,,---,0.00,VWS V14.01,2013-03-12 02:53:00,
2013-03-11 22:59:00,41.0,21.3,29.14,WNW,292,2.9,2.9,45,0.00,,---,0.00,VWS V14.01,2013-03-12 02:59:00,
2013-03-11 23:04:00,41.0,21.3,29.14,WNW,292,2.9,2.9,45,0.00,,---,0.00,VWS V14.01,2013-03-12 03:04:00,
2013-03-11 23:09:00,41.0,21.3,29.14,WNW,292,2.9,2.9,45,0.00,,---,0.00,VWS V14.01,2013-03-12 03:09:00,
2013-03-11 23:14:00,41.0,21.3,29.14,WNW,292,2.9,2.9,45,0.00,,---,0.00,VWS V14.01,2013-03-12 03:14:00,
2013-03-11 23:19:00,41.0,21.3,29.14,WNW,292,2.9,2.9,45,0.00,,---,0.00,VWS V14.01,2013-03-12 03:19:00,
2013-03-11 23:24:00,41.0,21.3,29.14,WNW,292,2.9,2.9,45,0.00,,---,0.00,VWS V14.01,2013-03-12 03:24:00,
2013-03-11 23:29:00,41.0,21.3,29.14,WNW,292,2.9,2.9,45,0.00,,---,0.00,VWS V14.01,2013-03-12 03:29:00,
2013-03-11 23:34:00,41.0,21.3,29.14,WNW,292,2.9,2.9,45,0.00,,---,0.00,VWS V14.01,2013-03-12 03:34:00,
2013-03-11 23:39:00,41.0,21.3,29.14,WNW,292,2.9,2.9,45,0.00,,---,0.00,VWS V14.01,2013-03-12 03:39:00,
2013-03-11 23:44:00,41.0,21.3,29.14,WNW,292,2.9,2.9,45,0.00,,---,0.00,VWS V14.01,2013-03-12 03:44:00,
2013-03-11 23:49:00,41.0,21.3,29.14,WNW,292,2.9,2.9,45,0.00,,---,0.00,VWS V14.01,2013-03-12 03:49:00,
2013-03-11 23:54:00,41.0,21.3,29.14,WNW,292,2.9,2.9,45,0.00,,---,0.00,VWS V14.01,2013-03-12 03:54:00,